COSMOS 1275 DEB

Satellite information

Favourite Embed

Satellite Type and Status

DEBRISIN ORBIT

Key statistics

Satellite COSMOS 1275 DEB at a glance.

Uptime

16105

Days in orbit

Revolutions

≈ 13.9

Per day

Orbit

LEO

Low Earth Orbit

Inclination

82.9

Latest

Satellite identification and parameters

Extended collection of information and parameters for COSMOS 1275 DEB.

Object identification

Identified? True

Debris? True

Object name: COSMOS 1275 DEB

International designator: 1981-053AG

Object number (NORAD): 12676

Object ID (CCSDS): 12676

Country: COMMONWEALTH OF INDEPENDENT STATES (CIS)

Current information (Y/N): Y

RCS size: MEDIUM

Orbital parameters

Period: 103.864 minutes

Inclination: 82.9439 deg

SMA: 7319.319 km

Apoapsis: 973.557 km

Periapsis: 908.811 km

RAAN: 20.5826 deg

Eccentricy: 0.0044229

Argument of periapsis: 0.7443 deg

Mean anomaly: 112.7908 deg

Mean motion: 13.86426165 rev/day

Mean motion (dot): 0.0000037 rev/day2

B* drag term: 0.0003036 1/REarth

Two-line elements (TLE)

Creation date: July 7, 2025, 11:16 p.m.

Reference frame: TEME

Reference center: EARTH

Epoch: July 7, 2025, 9:56 p.m. UTC

TLE line 0: 0 COSMOS 1275 DEB

TLE line 1: 1 12676U 81053AG 25188.91441983 .00000370 00000-0 30360-3 0 9997

TLE line 2: 2 12676 82.9439 20.5826 0044229 0.7443 112.7908 13.86426165213210

Live tracking on map

Real-time ground track for satellite COSMOS 1275 DEB.

In-orbit conjunctions

A list of the most updated potential collisions computed for object COSMOS 1275 DEB.

Target Orbit TCA Probability of collision Miss distance Type
CZ-2C DEB SSO 2025-01-29 18:19:40 0.0009430799 37.0 (m) DEBRIS

Associated space launch

Navigation satellite providing location information for the Tsiklon-B navigation system

COSMOS 1275 DEB was lifted into orbit during the mission ‘Kosmos-3M | Parus 27’, on board a Kosmos-3M space rocket.

The launch took place on June 4, 1981, 3:41 p.m. from 132/2.

For more information about the launch, click the button.

Launch to space Kosmos-3M | Parus 27
Kosmos-3M | Parus 27

Agency: N/A

Status: Launch Successful

Launch date: June 4, 1981, 3:41 p.m. UTC

Rocket: Kosmos-3M

Launch pad: 132/2

Location: Plesetsk Cosmodrome, Russian Federation

...

Latest news about this satellite

There are no fresh news available about this satellite. Check back as we update our databases every day.


Newsletter sign-up

Weekly statistics, charts and insights to help you stay on top of the space industry.